Hourly Weather Luczyce

Today, 7 May, Friday

Time Temperature Precipitation Wind Pressure Humidity
00:00 +7°C° 0.1 mm 1 mps 729 mmHg 80%
01:00 +7°C° 0.1 mm 1 mps 729 mmHg 81%
02:00 +7°C° 0.6 mm 1 mps 728 mmHg 84%
03:00 +7°C° 0.6 mm 1 mps 728 mmHg 88%
04:00 +7°C° 0.6 mm 1 mps 728 mmHg 91%
05:00 +6°C° 0 mm 2 mps 728 mmHg 90%
06:00 +7°C° 0 mm 3 mps 728 mmHg 88%
07:00 +7°C° 0 mm 3 mps 728 mmHg 87%
08:00 +8°C° 0.1 mm 5 mps 728 mmHg 82%
09:00 +9°C° 0.1 mm 6 mps 728 mmHg 78%
10:00 +10°C° 0.1 mm 7 mps 728 mmHg 74%
11:00 +10°C° 0.2 mm 7 mps 728 mmHg 72%
12:00 +11°C° 0.2 mm 7 mps 728 mmHg 70%
13:00 +11°C° 0.2 mm 7 mps 728 mmHg 68%
14:00 +11°C° 0.1 mm 7 mps 729 mmHg 69%
15:00 +10°C° 0.1 mm 7 mps 729 mmHg 69%
16:00 +10°C° 0.1 mm 7 mps 729 mmHg 70%
17:00 +8°C° 0 mm 7 mps 730 mmHg 74%
18:00 +5°C° 0 mm 7 mps 731 mmHg 78%
19:00 +3°C° 0 mm 7 mps 732 mmHg 81%
20:00 +3°C° 0 mm 6 mps 733 mmHg 82%
21:00 +2°C° 0 mm 6 mps 733 mmHg 83%
22:00 +2°C° 0 mm 5 mps 734 mmHg 83%
23:00 +1°C° 0 mm 5 mps 734 mmHg 84%

Tomorrow, 8 May, Saturday

Time Temperature Precipitation Wind Pressure Humidity
00:00 +1°C° 0 mm 5 mps 735 mmHg 85%
01:00 +1°C° 0 mm 5 mps 735 mmHg 85%
02:00 +1°C° 0 mm 5 mps 736 mmHg 85%
03:00 +1°C° 0 mm 5 mps 736 mmHg 85%
04:00 +1°C° 0 mm 6 mps 736 mmHg 84%
05:00 +1°C° 0 mm 6 mps 737 mmHg 81%
06:00 +2°C° 0 mm 5 mps 738 mmHg 77%
07:00 +3°C° 0 mm 5 mps 738 mmHg 74%
08:00 +5°C° 0 mm 5 mps 738 mmHg 67%
09:00 +7°C° 0 mm 5 mps 738 mmHg 61%
10:00 +8°C° 0 mm 5 mps 739 mmHg 55%
11:00 +9°C° 0 mm 5 mps 739 mmHg 53%
12:00 +9°C° 0 mm 5 mps 739 mmHg 51%
13:00 +10°C° 0 mm 5 mps 739 mmHg 50%
14:00 +10°C° 0 mm 5 mps 739 mmHg 49%
15:00 +11°C° 0 mm 4 mps 739 mmHg 48%
16:00 +11°C° 0 mm 4 mps 738 mmHg 48%
17:00 +10°C° 0 mm 3 mps 739 mmHg 55%
18:00 +8°C° 0 mm 2 mps 739 mmHg 62%
19:00 +7°C° 0 mm 1 mps 739 mmHg 70%
20:00 +7°C° 0 mm 1 mps 739 mmHg 71%
21:00 +6°C° 0 mm 1 mps 739 mmHg 73%
22:00 +6°C° 0 mm 1 mps 740 mmHg 74%
23:00 +5°C° 0 mm 1 mps 740 mmHg 75%

Day after tomorrow, 9 May, Sunday

Time Temperature Precipitation Wind Pressure Humidity
00:00 +5°C° 0 mm 1 mps 740 mmHg 76%
01:00 +4°C° 0 mm 2 mps 740 mmHg 77%
02:00 +3°C° 0 mm 2 mps 740 mmHg 76%
03:00 +3°C° 0 mm 2 mps 739 mmHg 75%
04:00 +3°C° 0 mm 2 mps 739 mmHg 73%
05:00 +5°C° 0 mm 2 mps 739 mmHg 70%
06:00 +7°C° 0 mm 2 mps 739 mmHg 66%
07:00 +9°C° 0 mm 3 mps 739 mmHg 62%
08:00 +11°C° 0 mm 3 mps 739 mmHg 58%
09:00 +13°C° 0 mm 3 mps 739 mmHg 53%
10:00 +15°C° 0 mm 4 mps 739 mmHg 49%
11:00 +17°C° 0 mm 3 mps 739 mmHg 47%
12:00 +18°C° 0 mm 3 mps 739 mmHg 46%
13:00 +19°C° 0 mm 2 mps 738 mmHg 44%
14:00 +20°C° 0 mm 2 mps 738 mmHg 46%
15:00 +20°C° 0 mm 2 mps 738 mmHg 47%
16:00 +20°C° 0 mm 2 mps 737 mmHg 48%
17:00 +18°C° 0 mm 2 mps 737 mmHg 57%
18:00 +16°C° 0 mm 2 mps 737 mmHg 65%
19:00 +14°C° 0 mm 2 mps 737 mmHg 74%
20:00 +12°C° 0 mm 2 mps 737 mmHg 75%
21:00 +10°C° 0 mm 2 mps 737 mmHg 76%
22:00 +9°C° 0 mm 2 mps 737 mmHg 77%
23:00 +9°C° 0 mm 2 mps 737 mmHg 78%

10 May, Monday

Time Temperature Precipitation Wind Pressure Humidity
00:00 +8°C° 0 mm 2 mps 737 mmHg 80%
01:00 +7°C° 0 mm 2 mps 736 mmHg 81%
02:00 +7°C° 0 mm 2 mps 736 mmHg 82%
03:00 +6°C° 0 mm 2 mps 736 mmHg 82%
04:00 +6°C° 0 mm 2 mps 736 mmHg 83%
05:00 +8°C° 0 mm 2 mps 736 mmHg 77%
06:00 +10°C° 0 mm 2 mps 736 mmHg 72%
07:00 +12°C° 0 mm 3 mps 736 mmHg 67%
08:00 +14°C° 0 mm 3 mps 736 mmHg 62%
09:00 +17°C° 0 mm 3 mps 736 mmHg 57%
10:00 +20°C° 0 mm 3 mps 736 mmHg 52%
11:00 +21°C° 0 mm 3 mps 736 mmHg 50%
12:00 +22°C° 0 mm 3 mps 736 mmHg 48%
13:00 +24°C° 0 mm 2 mps 736 mmHg 46%
14:00 +24°C° 0 mm 2 mps 736 mmHg 49%
15:00 +24°C° 0 mm 3 mps 735 mmHg 53%
16:00 +24°C° 0 mm 3 mps 735 mmHg 57%
17:00 +21°C° 0 mm 2 mps 735 mmHg 63%
18:00 +19°C° 0 mm 2 mps 736 mmHg 70%
19:00 +17°C° 0 mm 2 mps 736 mmHg 76%
20:00 +16°C° 0 mm 1 mps 736 mmHg 78%
21:00 +15°C° 0 mm 1 mps 736 mmHg 80%
22:00 +14°C° 0 mm 1 mps 736 mmHg 82%
23:00 +13°C° 0 mm 1 mps 735 mmHg 83%

11 May, Tuesday

Time Temperature Precipitation Wind Pressure Humidity
00:00 +13°C° 0 mm 2 mps 735 mmHg 85%
01:00 +12°C° 0 mm 2 mps 735 mmHg 87%
02:00 +12°C° 0 mm 2 mps 735 mmHg 88%
03:00 +10°C° 0 mm 2 mps 734 mmHg 89%
04:00 +10°C° 0 mm 2 mps 734 mmHg 90%
05:00 +13°C° 0 mm 2 mps 734 mmHg 85%
06:00 +15°C° 0 mm 2 mps 734 mmHg 79%
07:00 +16°C° 0 mm 3 mps 734 mmHg 74%
08:00 +18°C° 0 mm 3 mps 734 mmHg 68%
09:00 +21°C° 0 mm 3 mps 734 mmHg 62%
10:00 +24°C° 0 mm 3 mps 734 mmHg 56%
11:00 +25°C° 0 mm 3 mps 734 mmHg 53%
12:00 +26°C° 0 mm 3 mps 734 mmHg 50%
13:00 +27°C° 0 mm 3 mps 734 mmHg 48%
14:00 +27°C° 0 mm 3 mps 733 mmHg 52%
15:00 +26°C° 0 mm 3 mps 733 mmHg 56%
16:00 +26°C° 0 mm 4 mps 733 mmHg 61%
17:00 +23°C° 0 mm 4 mps 732 mmHg 67%
18:00 +21°C° 0 mm 4 mps 732 mmHg 72%
19:00 +19°C° 0 mm 4 mps 731 mmHg 78%
20:00 +17°C° 0 mm 3 mps 731 mmHg 81%
21:00 +16°C° 0 mm 3 mps 731 mmHg 83%
22:00 +14°C° 0 mm 3 mps 731 mmHg 85%
23:00 +15°C° 0 mm 2 mps 731 mmHg 87%

12 May, Wednesday

Time Temperature Precipitation Wind Pressure Humidity
00:00 +14°C° 0 mm 2 mps 731 mmHg 88%
01:00 +13°C° 0 mm 2 mps 730 mmHg 90%
02:00 +13°C° 0 mm 2 mps 730 mmHg 90%
03:00 +13°C° 0 mm 2 mps 730 mmHg 91%
04:00 +12°C° 0 mm 2 mps 730 mmHg 92%
05:00 +14°C° 0 mm 2 mps 730 mmHg 87%
06:00 +14°C° 0 mm 3 mps 730 mmHg 82%
07:00 +17°C° 0 mm 3 mps 729 mmHg 78%
08:00 +19°C° 0 mm 3 mps 729 mmHg 72%
09:00 +20°C° 0 mm 4 mps 729 mmHg 66%
10:00 +22°C° 0 mm 5 mps 729 mmHg 61%
11:00 +23°C° 0 mm 5 mps 728 mmHg 58%
12:00 +25°C° 0 mm 5 mps 728 mmHg 55%
13:00 +26°C° 0 mm 6 mps 728 mmHg 52%
14:00 +24°C° 0 mm 6 mps 727 mmHg 55%
15:00 +23°C° 0 mm 7 mps 727 mmHg 58%
16:00 +22°C° 0 mm 8 mps 726 mmHg 61%
17:00 +21°C° 0 mm 7 mps 726 mmHg 66%
18:00 +18°C° 0 mm 7 mps 726 mmHg 72%
19:00 +17°C° 0 mm 7 mps 725 mmHg 77%
20:00 +16°C° 0 mm 6 mps 725 mmHg 80%
21:00 +15°C° 0 mm 6 mps 725 mmHg 82%
22:00 +14°C° 0 mm 5 mps 725 mmHg 85%
23:00 +13°C° 0 mm 5 mps 725 mmHg 87%
Show more

We Need Your Consent

Meteoprog and our Service Providers may store and access personal data such as cookies, device identifiers or other similar technologies on your device and process such data to personalise content and ads, as well as provide social media features and to analyse the traffic.

  • Store and/or access information on your device

    Cookies, device identifiers or other information can be stored or accessed on your device for the purposes indicated above.

  • Personalised ads and content, ad and content measurement, audience insights, and products development

    Ads and content can be personalised based on a profile. More data can be added to better personalise ads and content. Ad and content performance can be measured. Insights about the audience who saw the ads and content can be derived. Such data can be used to develop or improve user’s experience, systems and software.

By clicking ‘I Agree’ you will allow the use of indicated cookies, device identifiers, web beacons or other similar technologies. Your settings can be changed in the browser on your device.

For certain purposes, legitimate interests may be relied on, rather than consent. You can read more about this in our Privacy and Cookie Policy.